GW4610 Weather Reports


time (UTC)temp
F
wind
direction
speed
knots
gust
knots
rain 1hr
in
rain 24hr
in
rain mn
in
humidity
%
barometer
mb
20260504081650 39 233 0.0 0.0 0.00 0.00 0.00 94 1016.2
20260504081146 39 233 0.0 0.0 0.00 0.00 0.00 95 1016.2
20260504080643 38 233 0.0 0.0 0.00 0.00 0.00 95 1016.5
20260504080139 38 233 0.0 0.0 0.00 0.00 0.00 94 1016.3
20260504070108 36 233 0.0 0.0 0.00 0.00 0.00 95 1016.5
20260504050456 37 233 0.0 0.0 0.00 0.00 0.00 91 1017.0
20260504045953 37 232 0.0 0.0 0.00 0.00 0.00 92 1017.1
20260504045449 37 232 0.0 0.0 0.00 0.00 0.00 92 1017.1
20260504044945 37 232 0.0 0.0 0.00 0.00 0.00 91 1017.0
20260504044443 37 232 0.0 0.0 0.00 0.00 0.00 90 1017.0
20260504043940 38 232 0.0 0.0 0.00 0.00 0.00 91 1017.0
20260504043437 38 232 0.0 0.0 0.00 0.00 0.00 90 1017.1
20260504042934 38 232 0.0 0.0 0.00 0.00 0.00 90 1017.2
20260504042431 38 232 0.0 0.0 0.00 0.00 0.00 89 1017.2
20260504041927 38 232 0.0 0.0 0.00 0.00 0.00 89 1017.1
20260504041424 38 232 0.0 0.0 0.00 0.00 0.00 89 1017.1
20260504040920 38 232 0.0 0.0 0.00 0.00 0.00 88 1017.1
20260504040418 38 232 0.0 0.9 0.00 0.00 0.00 88 1017.1
20260504035913 38 232 0.0 0.0 0.00 0.00 0.00 88 1017.1
20260504035411 38 232 0.0 0.0 0.00 0.00 0.00 89 1017.2
20260504034907 38 232 0.0 0.0 0.00 0.00 0.00 87 1017.1
20260504034405 39 232 0.0 0.0 0.00 0.00 0.00 87 1017.3
20260504033902 39 235 0.0 0.9 0.00 0.00 0.00 87 1017.0
20260504033400 40 281 0.0 0.0 0.00 0.00 0.00 87 1017.2
20260504032856 40 281 0.0 0.0 0.00 0.00 0.00 85 1017.0
20260504032353 40 281 0.0 0.0 0.00 0.00 0.00 85 1016.9
20260504031850 40 281 0.0 0.0 0.00 0.00 0.00 85 1017.0
20260504031347 40 281 0.0 0.0 0.00 0.00 0.00 85 1017.0
20260504030843 40 281 0.0 0.0 0.00 0.00 0.00 84 1017.1
20260504030341 40 281 0.0 0.9 0.00 0.00 0.00 83 1017.0
20260504025837 40 281 0.0 0.0 0.00 0.00 0.00 81 1017.1
20260504025334 41 281 0.0 0.9 0.00 0.00 0.00 81 1017.0
20260504024830 41 281 0.0 0.0 0.00 0.00 0.00 79 1017.0
20260504024327 42 281 0.0 0.0 0.00 0.00 0.00 78 1017.0
20260504023824 42 281 0.0 0.0 0.00 0.00 0.00 78 1017.1
20260504023321 43 281 0.0 0.0 0.00 0.00 0.00 78 1017.0
20260504022816 43 281 0.0 0.0 0.00 0.00 0.00 78 1017.2
20260504022313 43 281 0.0 0.0 0.00 0.00 0.00 76 1017.0
20260504021809 44 281 0.0 0.0 0.00 0.00 0.00 76 1016.8
20260504021308 45 281 0.0 0.0 0.00 0.00 0.00 75 1017.0
20260504020804 45 281 0.0 0.0 0.00 0.00 0.00 73 1017.1
20260504020301 45 297 0.0 0.9 0.00 0.00 0.00 71 1016.8
20260504015757 45 299 0.0 0.9 0.00 0.00 0.00 72 1016.7
20260504015253 45 299 0.0 0.9 0.00 0.00 0.00 74 1016.7
20260504014749 45 266 0.0 0.0 0.00 0.00 0.00 71 1016.8
20260504014246 45 266 0.0 0.0 0.00 0.00 0.00 71 1016.7
20260504013744 46 266 0.9 0.9 0.00 0.00 0.00 73 1016.7
20260504013241 46 266 0.0 0.0 0.00 0.00 0.00 68 1016.6
20260504012737 47 266 0.0 0.0 0.00 0.00 0.00 69 1016.5
20260504012235 47 303 0.0 0.0 0.00 0.00 0.00 62 1016.5
20260504011732 47 303 0.0 0.0 0.00 0.00 0.00 59 1016.4
20260504011229 47 303 0.0 0.0 0.00 0.00 0.00 68 1016.5
20260504010725 47 264 0.0 0.0 0.00 0.00 0.00 57 1016.4
20260504010220 48 265 0.0 0.0 0.00 0.00 0.00 58 1016.5
20260504005717 49 265 0.0 0.0 0.00 0.00 0.00 59 1016.6
20260504005214 50 267 0.0 0.9 0.00 0.00 0.00 51 1016.4
20260504004712 51 262 0.9 0.9 0.00 0.00 0.00 50 1016.4
20260504004209 51 293 0.0 0.9 0.00 0.00 0.00 48 1016.2
20260504003706 51 291 0.9 0.9 0.00 0.00 0.00 47 1016.2
20260504003202 51 253 0.0 0.0 0.00 0.00 0.00 49 1016.1
20260504002659 52 253 0.0 0.0 0.00 0.00 0.00 48 1016.2
20260504002156 52 253 0.0 0.0 0.00 0.00 0.00 43 1016.3
20260504001654 53 253 0.0 0.0 0.00 0.00 0.00 41 1016.1
20260504001150 55 253 0.0 0.0 0.00 0.00 0.00 40 1016.1
20260504000647 56 253 0.0 0.0 0.00 0.00 0.00 39 1016.1
20260504000145 56 279 0.0 0.9 0.00 0.00 0.00 37 1016.1
20260503235643 57 264 0.0 0.9 0.00 0.00 0.00 37 1016.0
20260503235139 58 264 0.0 1.7 0.00 0.00 0.00 35 1015.9
20260503234637 57 294 1.7 3.5 0.00 0.00 0.00 34 1016.0
20260503234135 58 250 0.9 1.7 0.00 0.00 0.00 35 1015.9
20260503233632 58 250 0.9 2.6 0.00 0.00 0.00 34 1016.1
20260503233127 58 287 0.9 0.9 0.00 0.00 0.00 34 1016.0
20260503232625 59 271 1.7 2.6 0.00 0.00 0.00 34 1016.1
20260503232122 59 303 2.6 2.6 0.00 0.00 0.00 35 1016.1
20260503231620 59 224 0.9 5.2 0.00 0.00 0.00 33 1016.1
20260503231116 59 273 1.7 3.5 0.00 0.00 0.00 34 1015.8
20260503230608 59 338 0.0 1.7 0.00 0.00 0.00 37 1016.0
20260503230105 59 211 1.7 5.2 0.00 0.00 0.00 34 1015.7
20260503225603 60 292 0.0 5.2 0.00 0.00 0.00 32 1015.8
20260503225057 60 290 0.0 1.7 0.00 0.00 0.00 34 1015.8
20260503224555 60 193 0.9 1.7 0.00 0.00 0.00 36 1015.7
20260503224053 60 229 2.6 5.2 0.00 0.00 0.00 35 1015.9
20260503223550 60 289 1.7 3.5 0.00 0.00 0.00 35 1016.0
20260503223045 60 291 1.7 2.6 0.00 0.00 0.00 33 1015.8
20260503222544 61 278 0.0 2.6 0.00 0.00 0.00 33 1016.0
20260503222041 61 297 1.7 2.6 0.00 0.00 0.00 33 1016.0
20260503221539 61 309 4.3 5.2 0.00 0.00 0.00 30 1016.0
20260503221037 62 311 4.3 7.0 0.00 0.00 0.00 30 1016.1
20260503220533 61 277 2.6 7.0 0.00 0.00 0.00 31 1016.1
20260503220030 61 300 4.3 7.8 0.00 0.00 0.00 31 1016.0
20260503215527 61 259 4.3 9.6 0.00 0.00 0.00 32 1016.1
20260503215024 61 306 4.3 9.6 0.00 0.00 0.00 29 1016.1
20260503214522 62 284 1.7 3.5 0.00 0.00 0.00 30 1016.1
20260503214018 61 297 6.1 11.3 0.00 0.00 0.00 30 1016.1
20260503213517 62 340 1.7 6.1 0.00 0.00 0.00 33 1016.1
20260503213013 62 268 4.3 7.0 0.00 0.00 0.00 30 1016.1
20260503212510 62 338 2.6 7.8 0.00 0.00 0.00 33 1015.9
20260503212008 62 234 3.5 11.3 0.00 0.00 0.00 31 1016.2
20260503211505 62 306 4.3 5.2 0.00 0.00 0.00 32 1016.2
20260503211000 62 272 5.2 7.0 0.00 0.00 0.00 31 1016.3
20260503210457 63 227 2.6 3.5 0.00 0.00 0.00 31 1016.3
20260503205957 62 292 3.5 7.0 0.00 0.00 0.00 30 1016.3
20260503205454 63 259 2.6 7.0 0.00 0.00 0.00 28 1016.3
20260503204951 62 194 1.7 3.5 0.00 0.00 0.00 33 1016.5
20260503204448 62 277 2.6 7.8 0.00 0.00 0.00 31 1016.4
20260503203945 62 261 1.7 7.0 0.00 0.00 0.00 30 1016.6
20260503203443 63 303 2.6 3.5 0.00 0.00 0.00 30 1016.5
20260503202939 63 33 0.0 3.5 0.00 0.00 0.00 32 1016.5
20260503202437 61 43 1.7 2.6 0.00 0.00 0.00 31 1016.5
20260503201936 62 292 5.2 8.7 0.00 0.00 0.00 32 1016.8
20260503201432 62 291 4.3 7.8 0.00 0.00 0.00 31 1016.6
20260503200930 62 261 3.5 7.0 0.00 0.00 0.00 31 1016.7
20260503200426 62 279 3.5 7.0 0.00 0.00 0.00 31 1016.8
20260503195923 61 236 6.1 7.8 0.00 0.00 0.00 31 1016.7
20260503195420 61 240 2.6 3.5 0.00 0.00 0.00 33 1016.9
20260503194916 62 314 7.0 11.3 0.00 0.00 0.00 38 1017.0
20260503194413 62 209 3.5 6.1 0.00 0.00 0.00 36 1017.0
20260503193909 61 279 0.0 5.2 0.00 0.00 0.00 30 1016.9
20260503193404 62 305 4.3 7.0 0.00 0.00 0.00 32 1017.1
20260503192900 63 218 2.6 3.5 0.00 0.00 0.00 36 1017.1
20260503192356 61 350 0.9 5.2 0.00 0.00 0.00 32 1017.3
20260503191853 61 207 2.6 3.5 0.00 0.00 0.00 35 1017.3
20260503191350 62 306 5.2 7.0 0.00 0.00 0.00 39 1017.4
20260503190846 60 211 1.7 7.0 0.00 0.00 0.00 32 1017.3
20260503190344 60 313 4.3 6.1 0.00 0.00 0.00 34 1017.5
20260503185841 59 250 2.6 7.0 0.00 0.00 0.00 35 1017.6
20260503185337 58 306 5.2 7.8 0.00 0.00 0.00 33 1017.6
20260503184836 60 305 7.8 12.2 0.00 0.00 0.00 31 1017.8
20260503184333 59 321 7.0 8.7 0.00 0.00 0.00 34 1017.7
20260503183829 60 252 2.6 7.8 0.00 0.00 0.00 31 1017.8
20260503183326 61 37 1.7 3.5 0.00 0.00 0.00 40 1018.0
20260503182823 61 277 1.7 3.5 0.00 0.00 0.00 36 1017.8
20260503182323 61 281 1.7 7.8 0.00 0.00 0.00 36 1017.8
20260503181819 60 322 0.9 6.1 0.00 0.00 0.00 38 1017.8
20260503181316 59 210 3.5 8.7 0.00 0.00 0.00 36 1017.9
20260503180813 59 331 2.6 3.5 0.00 0.00 0.00 31 1017.7
20260503180311 60 258 7.0 11.3 0.00 0.00 0.00 37 1017.8
20260503175807 60 303 6.1 7.8 0.00 0.00 0.00 36 1017.9
20260503175305 60 251 1.7 2.6 0.00 0.00 0.00 40 1018.0
20260503174800 60 277 1.7 5.2 0.00 0.00 0.00 35 1018.0
20260503174259 60 298 5.2 7.0 0.00 0.00 0.00 35 1018.0
20260503173754 59 309 3.5 5.2 0.00 0.00 0.00 36 1018.1
20260503173250 59 292 4.3 6.1 0.00 0.00 0.00 36 1018.1
20260503172747 59 277 4.3 8.7 0.00 0.00 0.00 35 1018.1
20260503172244 59 308 4.3 7.0 0.00 0.00 0.00 35 1018.4
20260503171741 58 258 3.5 3.5 0.00 0.00 0.00 39 1018.1
20260503171238 57 22 3.5 5.2 0.00 0.00 0.00 36 1018.5
20260503170735 60 313 0.9 2.6 0.00 0.00 0.00 34 1018.4
20260503170232 58 289 1.7 3.5 0.00 0.00 0.00 39 1018.5
20260503160153 55 262 0.9 3.5 0.00 0.00 0.00 42 1019.2
20260503150623 52 324 3.5 5.2 0.00 0.00 0.00 44 1019.8
20260503150120 51 295 7.0 9.6 0.00 0.00 0.00 44 1019.8
20260503131008 49 303 1.7 5.2 0.00 0.00 0.00 59 1020.1
20260503130505 48 260 1.7 2.6 0.00 0.00 0.00 61 1020.1
20260503110401 32 348 0.0 0.0 0.00 0.00 0.00 98 1019.3